Wind_Speed
12 12 11 11 11 11 11 10 11 12 12 12 12 13 13 14 14 14 14 14 15 16 15 15 15 15 16 15 15 15 14 14 14 13 12 12 12 11 11 11 10 9 8 8
12 13 12 11 11 11 11 12 12 12 12 12 12 12 13 14 15 14 14 15 15 16 15 14 14 15 15 15 16 15 15 15 14 14 13 13 13 12 11 11 11 10 9 9
13 12 12 11 12 12 12 12 12 12 12 13 13 13 13 14 15 14 14 14 15 15 15 15 15 15 16 15 16 16 16 16 15 15 14 13 13 12 11 11 11 10 10 10
14 13 13 12 12 12 12 12 12 12 12 12 13 13 13 13 14 14 14 14 15 16 16 16 15 16 16 16 16 16 16 16 15 15 14 13 12 12 11 11 11 10 10 10
14 13 13 13 12 12 12 12 12 12 13 13 13 13 13 13 13 13 14 14 15 15 15 15 15 15 16 17 16 16 16 16 16 15 14 14 14 13 12 12 12 12 11 11
14 14 14 13 12 12 12 12 12 12 13 13 12 13 13 13 13 13 13 14 15 15 16 16 16 16 16 16 16 16 16 16 16 15 14 14 14 13 13 12 12 12 12 11
14 14 14 13 13 12 12 12 12 12 13 13 12 13 13 13 14 14 14 14 14 15 15 15 15 16 15 15 15 16 16 16 15 15 15 15 14 13 13 12 12 11 11 11
13 14 14 14 14 13 12 13 13 13 13 13 14 14 13 13 14 14 15 15 14 15 15 14 14 15 15 15 16 15 16 16 15 15 15 15 14 13 13 12 12 11 10 10
14 15 14 14 14 14 13 14 13 13 14 14 14 14 14 13 13 14 15 15 14 14 15 15 15 15 15 15 15 16 16 16 15 15 15 15 15 14 14 13 12 12 11 10
14 15 15 14 14 14 14 14 14 14 14 14 14 14 13 13 13 13 14 14 14 13 14 15 15 15 15 16 16 16 15 15 15 16 15 15 15 15 15 14 12 12 11 10
15 15 15 15 15 15 15 15 15 15 14 14 14 14 13 14 14 13 14 14 13 13 14 14 15 15 16 16 17 16 16 16 16 16 16 16 16 16 15 14 13 13 12 11
15 16 16 16 15 15 15 15 16 16 15 15 15 15 13 14 14 13 14 14 14 14 14 14 15 16 16 17 17 17 16 16 16 17 16 15 15 15 15 15 14 14 13 12
16 16 16 16 16 15 15 15 15 16 16 16 16 15 14 14 14 13 14 13 14 15 15 15 15 16 16 16 17 17 17 16 16 16 15 15 14 14 14 14 14 14 13 12
17 17 17 17 16 16 15 16 16 16 16 16 16 15 13 13 14 14 14 13 14 14 14 15 15 16 17 17 17 17 17 17 16 16 16 15 14 14 14 15 14 14 14 13
18 19 18 18 18 17 16 16 16 16 16 15 15 14 12 12 13 14 14 14 14 14 14 15 15 16 16 17 17 17 17 17 17 17 16 16 15 15 14 14 14 14 14 14
20 20 19 19 18 18 18 17 16 16 16 15 14 13 12 13 13 14 14 14 14 14 14 15 15 15 15 15 16 16 17 17 17 17 17 17 16 15 15 15 14 14 14 14
21 20 20 19 19 19 19 17 17 16 16 16 15 13 14 14 14 14 14 13 13 14 15 15 15 15 15 14 15 16 16 17 17 17 17 17 17 16 16 16 15 15 14 14
20 20 20 19 19 20 17 16 16 16 16 15 14 14 14 15 14 14 14 14 14 14 15 15 15 15 15 15 15 16 16 17 17 18 18 18 17 17 17 16 15 15 15 14
21 20 21 20 20 19 17 16 16 16 15 15 14 14 14 15 15 14 14 14 14 14 15 16 15 16 16 16 16 17 17 18 18 18 18 18 18 18 17 16 16 15 15 15
21 21 21 21 20 19 17 16 16 16 15 14 14 14 15 15 15 13 13 14 14 14 14 15 16 17 17 16 16 17 17 18 18 18 18 18 18 18 18 17 17 16 16 16
22 22 21 21 20 19 17 16 15 15 13 14 14 14 14 14 13 12 13 13 14 14 14 14 15 16 16 16 17 17 17 17 17 18 18 18 17 17 17 17 17 17 17 17
22 23 22 22 21 19 17 16 16 15 14 14 14 14 14 13 13 13 13 13 13 14 14 14 14 15 15 16 16 17 17 17 17 18 18 17 16 16 16 17 17 17 17 17
23 23 23 22 21 19 19 17 16 15 15 15 15 15 14 14 14 14 14 13 13 13 13 13 14 14 15 15 15 16 17 17 17 18 18 18 17 17 17 17 17 17 17 17
22 23 23 22 20 19 19 18 17 16 16 16 16 15 15 14 14 14 14 13 13 13 13 13 13 13 14 14 15 15 15 16 17 17 17 18 18 18 18 17 17 17 17 17
24 24 23 22 20 20 19 19 18 17 17 17 17 16 16 15 14 14 14 14 14 14 14 14 13 14 14 14 15 15 15 16 17 17 17 17 17 17 18 18 18 18 18 18
25 25 24 23 22 20 19 19 19 19 18 18 17 17 16 16 16 15 15 15 15 16 16 16 15 15 15 16 15 15 15 16 16 17 17 17 17 17 18 18 19 19 19 19
Wind_Direction
256 254 253 255 255 252 251 251 249 247 245 242 240 239 241 241 240 236 235 235 235 235 233 234 233 234 233 232 232 234 235 234 233 233 234 236 238 241 245 247 246 250 259 268
255 254 255 255 255 252 250 249 249 248 247 247 247 246 243 243 240 236 237 239 239 239 239 237 236 237 237 234 231 234 238 236 236 236 237 240 241 242 246 248 245 249 256 263
252 255 255 254 253 249 247 245 246 248 247 249 250 250 248 243 239 239 240 241 240 238 236 240 243 243 240 236 234 234 236 236 236 236 238 243 239 241 247 243 240 246 253 259
250 251 252 252 250 246 244 245 246 246 248 251 253 251 249 245 239 240 242 242 239 239 239 241 242 245 241 237 236 237 238 234 234 234 236 238 240 243 249 246 245 245 248 254
247 248 250 250 248 245 242 243 245 247 247 249 251 250 248 246 242 240 241 241 241 241 242 242 241 242 239 237 238 241 238 236 235 236 238 239 244 246 249 251 253 253 252 252
246 246 246 246 245 245 242 242 245 245 245 246 249 249 244 243 242 241 241 243 243 243 243 243 244 244 241 237 238 241 240 239 237 237 241 243 247 246 247 249 251 253 255 251
244 244 243 243 243 242 241 239 243 243 243 246 247 247 246 243 242 242 243 245 244 244 245 242 245 243 240 238 239 241 240 238 238 239 241 244 245 245 246 249 253 253 253 252
242 242 242 241 241 242 241 239 241 244 246 248 249 251 249 246 245 245 244 245 246 247 246 242 243 242 240 238 239 242 241 239 240 241 242 244 245 246 247 250 254 256 253 252
240 242 241 241 241 241 241 242 243 247 250 251 251 252 252 248 247 245 244 246 248 245 245 243 240 239 235 237 241 242 242 241 241 240 241 245 246 248 247 247 254 254 250 250
237 240 242 243 242 241 242 242 241 243 248 252 252 255 256 252 251 248 247 247 246 245 245 245 244 235 233 238 240 241 240 240 242 243 243 246 247 247 246 247 250 250 248 250
236 240 241 239 239 243 242 240 239 242 247 250 254 257 255 253 248 246 246 247 246 246 247 246 243 238 238 240 240 241 242 242 243 244 246 245 244 243 244 246 247 248 248 252
237 238 240 241 240 242 244 244 243 243 247 250 253 258 255 252 248 245 244 243 242 243 243 242 243 240 238 240 239 241 243 243 244 246 246 244 245 243 243 244 246 245 247 250
236 237 239 243 242 241 244 245 246 245 250 254 256 258 254 251 250 245 243 241 240 239 239 242 244 243 240 241 242 242 243 245 245 245 245 242 243 242 240 241 244 245 247 250
238 237 239 243 245 243 242 243 246 247 249 252 254 251 250 247 247 243 240 240 240 239 239 243 244 242 241 243 243 242 243 245 245 243 242 240 240 242 241 241 242 243 245 247
241 240 240 241 243 243 243 244 246 248 247 249 248 245 242 240 242 244 244 243 241 240 242 243 242 242 244 243 243 242 244 244 243 242 240 238 238 240 241 243 243 243 244 246
243 242 241 242 244 245 245 245 246 247 246 247 244 240 239 238 238 242 243 244 242 241 242 241 241 242 241 240 243 243 241 242 241 239 238 238 238 240 241 242 244 245 246 247
242 243 245 245 245 247 245 244 245 246 245 246 244 241 241 243 240 241 241 241 242 243 243 240 240 241 237 238 242 242 241 240 239 238 238 239 240 241 242 243 243 244 248 250
239 240 244 245 245 247 244 242 244 244 242 242 242 243 244 246 243 241 240 241 242 244 242 242 240 238 239 242 243 240 240 240 239 238 237 237 240 242 244 242 241 243 248 251
236 238 241 241 244 247 244 241 243 243 241 241 240 241 244 245 243 239 239 243 243 242 242 242 242 240 241 244 244 241 241 241 241 238 238 239 240 243 243 242 243 245 248 252
234 237 239 240 243 245 243 241 242 242 241 238 238 241 244 244 243 240 240 242 245 244 242 241 241 239 241 244 243 243 241 240 239 237 238 239 241 241 240 241 242 245 248 252
235 237 238 240 242 243 241 241 241 241 240 239 239 241 243 244 241 238 239 242 244 244 243 242 243 243 244 243 243 244 242 239 237 234 235 238 240 241 240 241 242 246 249 253
234 237 239 239 240 242 241 240 240 240 239 240 240 241 244 245 243 242 243 244 246 245 243 243 245 245 247 246 246 243 243 240 234 233 236 238 239 241 241 242 243 245 248 252
234 237 239 239 241 243 239 239 239 238 238 240 240 242 245 247 246 246 246 248 249 249 246 247 247 247 247 246 245 243 242 237 233 236 237 239 242 243 243 246 246 248 252 254
231 234 236 237 238 237 236 237 236 235 236 237 239 242 245 246 246 246 247 248 249 250 252 252 252 251 249 247 245 243 242 240 238 240 240 241 243 244 245 248 250 252 254 256
230 233 235 237 237 236 235 235 234 233 235 236 237 239 243 245 247 247 247 247 248 250 251 252 254 251 249 249 245 243 243 243 241 242 241 242 244 245 247 250 252 254 256 257
231 233 235 236 235 234 233 233 232 233 234 235 237 239 242 245 246 247 248 249 249 251 252 252 253 252 249 248 247 245 244 245 246 247 244 244 247 251 252 252 253 254 255 256
Height
5847 5849 5849 5850 5851 5852 5852 5853 5854 5854 5855 5856 5857 5858 5859 5860 5861 5862 5863 5864 5866 5867 5868 5869 5870 5872 5873 5875 5876 5877 5879 5880 5881 5882 5883 5884 5885 5886 5887 5887 5887 5888 5888 5888
5845 5845 5847 5847 5847 5848 5849 5851 5851 5852 5852 5853 5854 5855 5856 5857 5858 5859 5860 5861 5863 5864 5865 5866 5868 5869 5871 5872 5873 5875 5876 5877 5878 5880 5881 5882 5883 5884 5884 5885 5885 5885 5886 5886
5841 5843 5843 5844 5844 5845 5846 5848 5849 5849 5850 5850 5851 5853 5853 5854 5855 5856 5857 5858 5859 5861 5862 5864 5865 5867 5868 5869 5870 5872 5873 5874 5876 5877 5878 5879 5880 5881 5882 5882 5883 5883 5883 5884
5837 5839 5840 5840 5841 5842 5843 5845 5846 5846 5847 5848 5849 5850 5850 5850 5852 5853 5854 5856 5857 5858 5860 5861 5862 5863 5865 5866 5868 5869 5870 5871 5873 5875 5876 5877 5878 5879 5879 5880 5880 5881 5881 5882
5834 5835 5836 5837 5838 5839 5841 5841 5843 5843 5844 5845 5846 5847 5848 5848 5849 5851 5852 5853 5854 5855 5857 5858 5859 5861 5861 5863 5864 5866 5867 5869 5870 5872 5873 5874 5875 5876 5877 5877 5878 5878 5879 5879
5830 5831 5832 5834 5835 5836 5837 5838 5839 5840 5841 5843 5843 5844 5845 5845 5846 5847 5849 5850 5851 5852 5853 5855 5856 5857 5859 5860 5862 5863 5865 5866 5867 5869 5870 5871 5873 5873 5874 5875 5875 5876 5877 5877
5826 5828 5829 5830 5831 5832 5834 5836 5837 5837 5838 5839 5840 5840 5843 5843 5843 5844 5845 5846 5847 5848 5850 5851 5852 5854 5855 5857 5858 5860 5862 5863 5865 5866 5867 5868 5870 5871 5871 5872 5873 5873 5874 5875
5823 5824 5826 5827 5828 5829 5831 5832 5834 5835 5836 5837 5837 5837 5839 5839 5840 5840 5842 5843 5844 5845 5846 5848 5849 5850 5852 5854 5855 5857 5858 5860 5861 5863 5864 5865 5867 5868 5869 5869 5870 5871 5871 5872
5819 5821 5822 5823 5825 5826 5827 5828 5831 5832 5832 5833 5834 5835 5836 5836 5836 5837 5838 5839 5840 5842 5843 5844 5846 5847 5849 5850 5852 5853 5855 5856 5858 5859 5861 5862 5864 5865 5866 5867 5868 5868 5869 5869
5815 5817 5818 5819 5821 5822 5824 5825 5827 5828 5829 5830 5831 5831 5832 5832 5833 5834 5834 5836 5837 5838 5839 5841 5842 5843 5845 5847 5848 5850 5851 5853 5855 5856 5857 5859 5860 5862 5863 5864 5865 5866 5866 5867
5811 5813 5815 5816 5817 5818 5820 5822 5822 5824 5825 5827 5828 5830 5829 5829 5829 5830 5831 5832 5833 5835 5836 5837 5839 5840 5841 5843 5845 5846 5848 5850 5851 5853 5854 5855 5857 5858 5860 5861 5862 5863 5864 5864
5806 5809 5810 5812 5814 5815 5816 5817 5819 5821 5822 5822 5824 5827 5824 5825 5825 5827 5828 5829 5830 5831 5833 5834 5835 5836 5838 5839 5841 5843 5844 5846 5848 5849 5850 5852 5853 5855 5856 5857 5859 5860 5861 5861
5802 5805 5807 5808 5811 5811 5811 5813 5815 5816 5817 5818 5820 5823 5821 5821 5822 5823 5824 5825 5826 5827 5829 5830 5831 5833 5834 5836 5837 5839 5841 5842 5844 5845 5847 5848 5850 5851 5852 5853 5855 5856 5857 5858
5798 5800 5803 5805 5806 5807 5808 5809 5810 5812 5813 5814 5815 5817 5817 5818 5818 5819 5820 5821 5822 5824 5825 5826 5827 5829 5830 5832 5833 5835 5837 5838 5840 5841 5843 5845 5846 5848 5849 5850 5851 5852 5853 5855
5793 5795 5797 5799 5801 5802 5804 5805 5806 5807 5809 5810 5812 5812 5814 5814 5814 5815 5816 5817 5818 5820 5821 5823 5824 5825 5826 5828 5829 5831 5832 5834 5836 5838 5839 5841 5843 5844 5845 5846 5847 5848 5850 5851
5789 5791 5793 5795 5796 5797 5799 5800 5802 5803 5804 5806 5807 5809 5810 5810 5811 5811 5812 5813 5815 5816 5817 5819 5820 5821 5822 5824 5825 5827 5828 5830 5832 5834 5836 5837 5839 5840 5841 5843 5844 5845 5846 5847
5784 5786 5788 5790 5792 5792 5794 5797 5798 5799 5800 5802 5803 5806 5806 5806 5807 5808 5809 5810 5811 5813 5814 5815 5816 5817 5819 5820 5822 5823 5825 5826 5828 5830 5831 5833 5834 5836 5837 5839 5840 5841 5842 5843
5779 5781 5783 5785 5787 5788 5793 5793 5794 5795 5796 5797 5799 5801 5801 5803 5803 5804 5805 5806 5808 5809 5810 5811 5812 5814 5815 5817 5818 5819 5820 5822 5824 5825 5827 5829 5830 5832 5833 5835 5836 5837 5838 5839
5774 5776 5779 5780 5782 5784 5787 5788 5789 5790 5792 5794 5795 5796 5797 5798 5799 5800 5801 5802 5804 5805 5806 5807 5808 5810 5811 5812 5814 5815 5816 5818 5819 5821 5823 5824 5826 5827 5829 5830 5832 5833 5834 5835
5769 5771 5774 5776 5777 5779 5784 5785 5785 5787 5788 5790 5791 5792 5793 5794 5796 5798 5798 5799 5800 5801 5802 5803 5804 5806 5807 5808 5809 5810 5811 5813 5814 5816 5818 5820 5821 5823 5824 5826 5827 5829 5830 5831
5764 5766 5768 5771 5772 5775 5778 5779 5781 5784 5786 5786 5787 5788 5789 5790 5793 5794 5795 5796 5797 5797 5798 5800 5801 5802 5803 5804 5804 5806 5807 5808 5810 5812 5814 5815 5817 5818 5819 5821 5822 5824 5825 5826
5759 5761 5764 5766 5768 5773 5773 5775 5777 5780 5781 5782 5783 5784 5786 5787 5788 5790 5791 5792 5793 5793 5794 5796 5797 5798 5798 5799 5800 5801 5803 5804 5806 5808 5809 5811 5812 5814 5815 5816 5818 5819 5820 5821
5753 5757 5759 5762 5766 5767 5768 5770 5772 5774 5776 5777 5779 5780 5782 5783 5784 5786 5787 5788 5789 5790 5791 5792 5793 5794 5794 5795 5796 5797 5798 5800 5802 5804 5805 5807 5808 5809 5810 5812 5813 5815 5816 5817
5747 5750 5753 5756 5759 5761 5763 5765 5767 5769 5771 5773 5774 5776 5777 5779 5780 5782 5783 5784 5785 5786 5787 5788 5789 5790 5790 5791 5792 5793 5795 5796 5798 5799 5801 5802 5803 5805 5806 5807 5808 5810 5811 5811
5741 5744 5746 5749 5753 5755 5757 5759 5762 5764 5766 5768 5770 5771 5773 5774 5776 5777 5779 5780 5781 5782 5783 5784 5785 5786 5787 5787 5788 5789 5790 5792 5793 5795 5796 5797 5799 5800 5801 5802 5803 5804 5805 5806
5735 5738 5741 5744 5747 5749 5752 5754 5757 5759 5761 5763 5765 5767 5768 5770 5771 5773 5774 5775 5777 5778 5779 5780 5781 5781 5782 5783 5784 5785 5786 5787 5789 5790 5791 5792 5794 5795 5795 5797 5798 5799 5800 5800